Aviation Discussion

000 FXUS63 KDTX 232308 AFDDTX AREA FORECAST DISCUSSION NATIONAL WEATHER SERVICE DETROIT/PONTIAC MI 708 PM EDT WED APR 23 2014 .AVIATION... //DISCUSSION... HIGH PRESSURE SETTLING INTO THE REGION WILL BRING VFR CONDITIONS THROUGH 00Z FRIDAY. NORTHERLY WINDS WILL BECOME LIGHT AND VARIABLE THIS EVENING AS THE ATMOSPHERE DECOUPLES. HIGH/MID CLOUDS WILL INCREASE AND THICKEN OVERNIGHT AND THURSDAY AHEAD OF AN APPROACHING LOW PRESSURE SYSTEM. RAIN FROM THIS SYSTEM IS EXPECTED TO HOLD OFF UNTIL AFTER 00Z FRI. //DTW THRESHOLD THREATS... * NONE

KDTW 232333Z 2400/2506 36007KT P6SM SCT250
FM240100 VRB02KT P6SM BKN250
FM241300 12010KT P6SM OVC120=

KDET 232333Z 2400/2424 01007KT P6SM SCT250
FM240100 VRB02KT P6SM BKN250
FM241300 13010KT P6SM OVC120=

Cleveland Center Weather Service Unit (CWSU)
Mission:
Our main responsibility is to provide up to the minute weather information to FAA Supervisors and the ZOB Traffic Management Unit (TMU). Some of the products issued by the CWSU are the Center Weather Advisories (CWA) and the Meteorological Impact Statement (MIS). The CWA is an aviation weather warning for thunderstorms, severe icing or turbulence, and low IFR ceilings and visibility. The MIS is a 2-12 hour forecast for weather conditions, which are expected to impact ARTCC operations.
 
Operations:
The Cleveland Center Weather Service Unit (ZOB CWSU) is located at the Federal Aviation Administration (FAA) Air Route Traffic Control Center (ARTCC) in Oberlin, OH. Four National Weather Service meteorologists staff the office. Our hours of operation are from 6:00 A.M. to 9:30 P.M. daily.

Web Site Owner:
NOAA National Weather Service
Cleveland ARTCC Attn:CWSU
326 East Lorain Street
Oberlin, OH 44074
Web Administrator:Webmaster
Page last modified: 23 Feb 2013
Disclaimer
Credits
Glossary
Privacy Policy
About Our Organization
Career Opportunities